QPF
0.01 0.02 0.01 0.01 0.00 0.00 0.00 0.00 0.00 0.00 0.00 0.00 0.00 0.00 0.00 0.00 0.00 0.00 0.00 0.00 0.00 0.00 0.00 0.01 0.02 0.02 0.03 0.04 0.03 0.01 0.01 0.01 0.02 0.02 0.01 0.01 0.01 0.01 0.02 0.02 0.01 0.02 0.03 0.03 0.02 0.02 0.02 0.01 0.01
0.01 0.01 0.02 0.01 0.00 0.00 0.00 0.00 0.00 0.00 0.00 0.00 0.00 0.00 0.00 0.00 0.00 0.00 0.00 0.00 0.00 0.00 0.00 0.01 0.02 0.02 0.03 0.04 0.04 0.02 0.02 0.01 0.02 0.02 0.03 0.01 0.01 0.01 0.01 0.01 0.01 0.02 0.03 0.02 0.01 0.01 0.01 0.01 0.01
0.01 0.02 0.01 0.00 0.00 0.00 0.00 0.00 0.00 0.00 0.00 0.00 0.00 0.00 0.00 0.00 0.00 0.00 0.00 0.00 0.00 0.00 0.00 0.01 0.02 0.03 0.03 0.04 0.04 0.04 0.03 0.02 0.01 0.02 0.03 0.02 0.01 0.02 0.02 0.02 0.02 0.02 0.03 0.02 0.01 0.01 0.01 0.01 0.01
0.01 0.02 0.01 0.00 0.00 0.00 0.00 0.00 0.00 0.00 0.00 0.00 0.00 0.00 0.00 0.00 0.00 0.00 0.00 0.00 0.01 0.01 0.01 0.01 0.02 0.03 0.03 0.04 0.04 0.05 0.05 0.03 0.02 0.02 0.03 0.03 0.02 0.02 0.02 0.02 0.02 0.02 0.02 0.02 0.02 0.01 0.01 0.01 0.01
0.01 0.01 0.01 0.00 0.00 0.00 0.00 0.00 0.00 0.00 0.00 0.00 0.00 0.00 0.00 0.00 0.00 0.00 0.00 0.00 0.01 0.01 0.01 0.01 0.02 0.03 0.03 0.04 0.04 0.04 0.06 0.06 0.04 0.03 0.03 0.04 0.03 0.02 0.03 0.02 0.02 0.02 0.02 0.02 0.02 0.01 0.01 0.01 0.01
0.02 0.01 0.01 0.00 0.00 0.00 0.00 0.00 0.00 0.00 0.00 0.00 0.00 0.00 0.00 0.00 0.00 0.00 0.00 0.00 0.01 0.01 0.01 0.02 0.04 0.04 0.04 0.04 0.04 0.04 0.05 0.07 0.07 0.05 0.05 0.04 0.04 0.03 0.03 0.03 0.02 0.02 0.01 0.02 0.01 0.01 0.01 0.02 0.01
0.01 0.01 0.01 0.00 0.00 0.00 0.00 0.00 0.00 0.00 0.00 0.00 0.00 0.00 0.00 0.00 0.00 0.00 0.00 0.00 0.01 0.02 0.03 0.03 0.04 0.05 0.05 0.05 0.04 0.05 0.06 0.08 0.09 0.10 0.08 0.05 0.04 0.04 0.03 0.03 0.02 0.03 0.02 0.02 0.01 0.01 0.01 0.01 0.01
0.01 0.01 0.00 0.00 0.00 0.01 0.01 0.00 0.00 0.00 0.00 0.00 0.00 0.00 0.00 0.00 0.00 0.00 0.01 0.01 0.02 0.03 0.04 0.04 0.05 0.06 0.05 0.06 0.06 0.06 0.06 0.07 0.09 0.11 0.12 0.08 0.06 0.05 0.04 0.04 0.03 0.03 0.03 0.03 0.02 0.01 0.01 0.01 0.00
0.02 0.02 0.01 0.00 0.00 0.01 0.01 0.01 0.00 0.00 0.00 0.00 0.00 0.00 0.01 0.01 0.01 0.01 0.01 0.01 0.02 0.03 0.04 0.05 0.06 0.06 0.06 0.06 0.07 0.07 0.07 0.07 0.08 0.11 0.13 0.12 0.07 0.05 0.04 0.03 0.04 0.04 0.03 0.03 0.03 0.02 0.02 0.01 0.01
0.01 0.02 0.01 0.00 0.00 0.01 0.01 0.01 0.01 0.00 0.00 0.00 0.00 0.00 0.01 0.01 0.01 0.01 0.01 0.01 0.02 0.02 0.04 0.05 0.05 0.06 0.06 0.06 0.07 0.07 0.07 0.05 0.06 0.08 0.13 0.12 0.09 0.05 0.03 0.04 0.05 0.04 0.04 0.04 0.04 0.04 0.04 0.02 0.01
0.00 0.01 0.02 0.01 0.00 0.00 0.01 0.02 0.01 0.01 0.00 0.00 0.00 0.01 0.01 0.01 0.02 0.02 0.02 0.02 0.02 0.03 0.04 0.04 0.05 0.06 0.05 0.06 0.06 0.07 0.07 0.06 0.06 0.07 0.10 0.13 0.11 0.08 0.05 0.04 0.05 0.04 0.04 0.03 0.05 0.05 0.04 0.03 0.02
0.00 0.00 0.00 0.00 0.00 0.01 0.01 0.01 0.02 0.03 0.02 0.01 0.01 0.01 0.01 0.01 0.02 0.02 0.03 0.03 0.04 0.04 0.04 0.04 0.04 0.05 0.05 0.06 0.06 0.06 0.06 0.06 0.05 0.06 0.08 0.12 0.13 0.10 0.05 0.03 0.03 0.03 0.03 0.04 0.05 0.06 0.05 0.03 0.02
0.01 0.00 0.01 0.00 0.00 0.00 0.01 0.01 0.02 0.03 0.03 0.02 0.01 0.01 0.01 0.01 0.02 0.02 0.03 0.04 0.04 0.04 0.03 0.04 0.04 0.04 0.05 0.06 0.07 0.07 0.06 0.06 0.06 0.05 0.07 0.10 0.12 0.13 0.08 0.04 0.03 0.03 0.03 0.05 0.07 0.06 0.06 0.04 0.02
0.01 0.01 0.01 0.00 0.00 0.01 0.02 0.02 0.01 0.03 0.04 0.03 0.01 0.01 0.01 0.01 0.01 0.02 0.03 0.04 0.04 0.04 0.04 0.04 0.04 0.04 0.05 0.06 0.07 0.07 0.06 0.06 0.07 0.06 0.06 0.09 0.12 0.12 0.11 0.05 0.03 0.04 0.04 0.04 0.06 0.06 0.05 0.04 0.02
0.01 0.02 0.02 0.02 0.01 0.01 0.02 0.01 0.02 0.03 0.03 0.02 0.01 0.01 0.01 0.01 0.01 0.02 0.02 0.04 0.05 0.04 0.04 0.04 0.03 0.04 0.04 0.05 0.06 0.08 0.08 0.07 0.08 0.07 0.07 0.08 0.10 0.11 0.10 0.06 0.03 0.04 0.05 0.06 0.06 0.06 0.05 0.04 0.02
0.02 0.02 0.02 0.02 0.02 0.01 0.02 0.02 0.01 0.01 0.02 0.02 0.01 0.01 0.01 0.01 0.01 0.02 0.02 0.03 0.05 0.05 0.04 0.04 0.04 0.04 0.04 0.04 0.05 0.07 0.09 0.09 0.09 0.07 0.09 0.12 0.13 0.12 0.10 0.07 0.04 0.03 0.03 0.04 0.05 0.05 0.05 0.04 0.03
0.02 0.01 0.01 0.01 0.01 0.01 0.01 0.01 0.01 0.01 0.02 0.02 0.01 0.01 0.01 0.01 0.01 0.02 0.02 0.02 0.04 0.05 0.04 0.04 0.04 0.04 0.05 0.04 0.05 0.06 0.08 0.10 0.10 0.10 0.10 0.13 0.16 0.18 0.15 0.10 0.06 0.04 0.04 0.04 0.04 0.04 0.04 0.04 0.04
0.01 0.01 0.01 0.01 0.01 0.01 0.01 0.01 0.01 0.01 0.02 0.02 0.01 0.01 0.00 0.01 0.01 0.01 0.01 0.02 0.03 0.05 0.04 0.04 0.05 0.05 0.06 0.05 0.06 0.06 0.08 0.10 0.10 0.11 0.13 0.14 0.14 0.16 0.16 0.14 0.09 0.06 0.05 0.05 0.04 0.04 0.04 0.04 0.04
0.01 0.01 0.01 0.01 0.01 0.01 0.01 0.01 0.01 0.01 0.01 0.02 0.01 0.01 0.01 0.01 0.01 0.01 0.01 0.01 0.02 0.04 0.04 0.04 0.05 0.05 0.05 0.05 0.05 0.05 0.06 0.09 0.10 0.10 0.14 0.15 0.16 0.16 0.14 0.13 0.10 0.06 0.05 0.04 0.03 0.03 0.03 0.03 0.03
0.01 0.01 0.01 0.01 0.01 0.01 0.01 0.01 0.01 0.01 0.01 0.01 0.01 0.01 0.00 0.00 0.00 0.00 0.00 0.00 0.01 0.03 0.04 0.03 0.04 0.06 0.06 0.04 0.04 0.04 0.05 0.07 0.11 0.11 0.12 0.16 0.17 0.18 0.16 0.11 0.09 0.06 0.04 0.03 0.03 0.03 0.03 0.03 0.03
0.01 0.01 0.01 0.00 0.00 0.00 0.00 0.01 0.01 0.01 0.00 0.00 0.01 0.00 0.00 0.00 0.00 0.00 0.00 0.00 0.01 0.02 0.04 0.04 0.03 0.05 0.08 0.05 0.06 0.05 0.06 0.07 0.10 0.14 0.14 0.14 0.15 0.18 0.17 0.12 0.09 0.06 0.04 0.03 0.02 0.02 0.03 0.03 0.03
0.01 0.01 0.00 0.00 0.00 0.00 0.00 0.00 0.00 0.00 0.00 0.00 0.00 0.01 0.01 0.00 0.00 0.00 0.00 0.00 0.01 0.02 0.04 0.05 0.05 0.05 0.07 0.08 0.07 0.07 0.06 0.07 0.08 0.10 0.17 0.18 0.14 0.14 0.15 0.13 0.10 0.07 0.04 0.03 0.02 0.02 0.02 0.03 0.04
0.00 0.00 0.00 0.00 0.00 0.00 0.00 0.01 0.00 0.00 0.00 0.00 0.00 0.01 0.01 0.01 0.01 0.00 0.00 0.00 0.01 0.03 0.05 0.06 0.08 0.08 0.10 0.12 0.08 0.08 0.06 0.07 0.10 0.10 0.14 0.22 0.20 0.15 0.14 0.13 0.12 0.09 0.06 0.04 0.04 0.04 0.03 0.02 0.03
0.01 0.00 0.00 0.00 0.01 0.01 0.00 0.00 0.00 0.00 0.00 0.00 0.00 0.00 0.01 0.01 0.02 0.01 0.00 0.00 0.01 0.02 0.03 0.04 0.06 0.10 0.12 0.15 0.15 0.10 0.07 0.06 0.09 0.12 0.12 0.16 0.20 0.19 0.16 0.15 0.13 0.11 0.07 0.05 0.05 0.06 0.05 0.04 0.04
0.01 0.01 0.02 0.02 0.01 0.00 0.00 0.00 0.00 0.00 0.00 0.00 0.00 0.00 0.00 0.01 0.02 0.02 0.01 0.01 0.01 0.01 0.02 0.02 0.04 0.07 0.10 0.14 0.17 0.15 0.11 0.09 0.09 0.10 0.12 0.12 0.15 0.17 0.16 0.15 0.16 0.14 0.10 0.09 0.09 0.08 0.06 0.06 0.05
0.01 0.01 0.01 0.01 0.01 0.00 0.00 0.01 0.01 0.00 0.00 0.00 0.00 0.00 0.00 0.00 0.01 0.01 0.01 0.01 0.02 0.01 0.01 0.02 0.03 0.05 0.06 0.08 0.13 0.16 0.16 0.16 0.15 0.13 0.12 0.11 0.12 0.13 0.15 0.13 0.13 0.13 0.13 0.10 0.10 0.11 0.09 0.07 0.06
0.01 0.01 0.01 0.01 0.01 0.01 0.01 0.01 0.01 0.00 0.00 0.00 0.00 0.00 0.00 0.00 0.00 0.01 0.01 0.01 0.01 0.01 0.01 0.02 0.02 0.04 0.05 0.05 0.07 0.11 0.14 0.15 0.17 0.20 0.18 0.14 0.13 0.13 0.14 0.13 0.11 0.11 0.11 0.09 0.09 0.10 0.10 0.09 0.07
0.01 0.01 0.01 0.02 0.02 0.01 0.01 0.01 0.01 0.01 0.00 0.00 0.00 0.00 0.00 0.00 0.00 0.01 0.01 0.01 0.01 0.01 0.02 0.02 0.03 0.02 0.04 0.05 0.05 0.06 0.09 0.11 0.11 0.15 0.21 0.21 0.18 0.15 0.13 0.11 0.10 0.10 0.10 0.09 0.07 0.07 0.08 0.09 0.08
0.01 0.01 0.02 0.02 0.02 0.02 0.02 0.02 0.02 0.01 0.00 0.00 0.00 0.00 0.00 0.00 0.00 0.00 0.01 0.01 0.02 0.03 0.03 0.03 0.03 0.03 0.04 0.05 0.05 0.04 0.05 0.06 0.08 0.08 0.12 0.16 0.20 0.18 0.15 0.11 0.08 0.09 0.11 0.12 0.11 0.09 0.07 0.07 0.07
0.01 0.01 0.01 0.02 0.01 0.01 0.02 0.01 0.01 0.00 0.00 0.00 0.00 0.00 0.00 0.00 0.00 0.00 0.00 0.01 0.02 0.02 0.03 0.03 0.03 0.02 0.03 0.05 0.05 0.05 0.04 0.04 0.06 0.07 0.08 0.10 0.14 0.18 0.17 0.12 0.08 0.08 0.10 0.12 0.12 0.11 0.08 0.06 0.05
MSLP
1012.59 1013.15 1014.14 1015.43 1016.86 1018.21 1019.29 1019.96 1020.19 1020.02 1019.57 1019.02 1018.52 1018.18 1018.03 1018.04 1018.10 1018.09 1017.91 1017.50 1016.88 1016.12 1015.33 1014.63 1014.13 1013.86 1013.82 1013.93 1014.11 1014.28 1014.39 1014.40 1014.36 1014.30 1014.29 1014.37 1014.55 1014.80 1015.09 1015.36 1015.56 1015.70 1015.76 1015.80 1015.85 1015.94 1016.11 1016.33 1016.59
1013.14 1013.89 1015.06 1016.49 1017.98 1019.32 1020.31 1020.86 1020.92 1020.58 1019.99 1019.34 1018.79 1018.45 1018.35 1018.42 1018.54 1018.59 1018.43 1018.02 1017.35 1016.53 1015.67 1014.90 1014.34 1014.03 1013.97 1014.08 1014.28 1014.48 1014.62 1014.65 1014.62 1014.55 1014.52 1014.56 1014.68 1014.88 1015.12 1015.36 1015.55 1015.69 1015.77 1015.84 1015.92 1016.06 1016.26 1016.51 1016.80
1013.90 1014.80 1016.07 1017.56 1019.06 1020.34 1021.23 1021.65 1021.59 1021.13 1020.46 1019.77 1019.21 1018.89 1018.81 1018.90 1019.04 1019.07 1018.90 1018.44 1017.74 1016.86 1015.95 1015.14 1014.55 1014.22 1014.13 1014.24 1014.44 1014.65 1014.79 1014.83 1014.79 1014.71 1014.65 1014.64 1014.72 1014.87 1015.07 1015.27 1015.45 1015.59 1015.70 1015.80 1015.93 1016.11 1016.36 1016.66 1016.98
1014.82 1015.83 1017.15 1018.63 1020.06 1021.25 1022.03 1022.34 1022.20 1021.70 1021.02 1020.34 1019.81 1019.50 1019.42 1019.49 1019.58 1019.56 1019.32 1018.80 1018.05 1017.14 1016.21 1015.39 1014.78 1014.44 1014.33 1014.41 1014.59 1014.76 1014.87 1014.90 1014.84 1014.74 1014.66 1014.63 1014.68 1014.81 1014.97 1015.16 1015.33 1015.48 1015.61 1015.75 1015.92 1016.14 1016.43 1016.77 1017.13
1015.88 1016.94 1018.25 1019.65 1020.97 1022.03 1022.70 1022.94 1022.76 1022.28 1021.66 1021.05 1020.57 1020.28 1020.18 1020.19 1020.19 1020.06 1019.71 1019.12 1018.32 1017.40 1016.48 1015.67 1015.07 1014.72 1014.58 1014.60 1014.71 1014.81 1014.86 1014.84 1014.76 1014.65 1014.58 1014.55 1014.61 1014.73 1014.90 1015.08 1015.26 1015.42 1015.57 1015.74 1015.94 1016.20 1016.52 1016.88 1017.27
1017.02 1018.08 1019.32 1020.61 1021.78 1022.69 1023.26 1023.45 1023.30 1022.90 1022.38 1021.88 1021.48 1021.21 1021.07 1020.98 1020.85 1020.57 1020.10 1019.43 1018.60 1017.68 1016.79 1016.02 1015.45 1015.07 1014.88 1014.82 1014.81 1014.81 1014.76 1014.67 1014.56 1014.46 1014.41 1014.43 1014.53 1014.69 1014.89 1015.09 1015.28 1015.45 1015.62 1015.80 1016.02 1016.29 1016.62 1017.00 1017.39
1018.18 1019.22 1020.37 1021.50 1022.49 1023.26 1023.73 1023.90 1023.81 1023.53 1023.16 1022.79 1022.48 1022.24 1022.04 1021.83 1021.54 1021.10 1020.51 1019.76 1018.90 1018.02 1017.18 1016.47 1015.91 1015.51 1015.25 1015.06 1014.91 1014.75 1014.58 1014.41 1014.26 1014.18 1014.18 1014.27 1014.45 1014.68 1014.94 1015.18 1015.39 1015.58 1015.75 1015.94 1016.16 1016.43 1016.76 1017.12 1017.50
1019.37 1020.36 1021.38 1022.33 1023.15 1023.76 1024.15 1024.31 1024.30 1024.16 1023.96 1023.74 1023.51 1023.29 1023.02 1022.69 1022.23 1021.65 1020.93 1020.11 1019.26 1018.42 1017.66 1017.00 1016.47 1016.03 1015.66 1015.32 1014.99 1014.66 1014.34 1014.07 1013.88 1013.82 1013.88 1014.07 1014.35 1014.68 1015.01 1015.30 1015.55 1015.75 1015.93 1016.11 1016.33 1016.59 1016.90 1017.25 1017.60
1020.56 1021.49 1022.37 1023.15 1023.78 1024.24 1024.54 1024.71 1024.78 1024.78 1024.73 1024.65 1024.51 1024.30 1023.97 1023.52 1022.91 1022.18 1021.37 1020.51 1019.67 1018.90 1018.21 1017.61 1017.09 1016.60 1016.10 1015.59 1015.05 1014.52 1014.03 1013.65 1013.43 1013.38 1013.52 1013.80 1014.19 1014.62 1015.03 1015.38 1015.66 1015.88 1016.07 1016.26 1016.48 1016.74 1017.04 1017.37 1017.70
1021.78 1022.63 1023.38 1023.98 1024.42 1024.74 1024.95 1025.11 1025.24 1025.36 1025.45 1025.48 1025.42 1025.21 1024.83 1024.27 1023.55 1022.71 1021.82 1020.94 1020.13 1019.42 1018.80 1018.25 1017.72 1017.16 1016.53 1015.82 1015.07 1014.32 1013.66 1013.17 1012.89 1012.86 1013.05 1013.43 1013.92 1014.44 1014.93 1015.34 1015.66 1015.91 1016.12 1016.33 1016.57 1016.85 1017.17 1017.50 1017.82
1023.01 1023.79 1024.40 1024.83 1025.10 1025.26 1025.38 1025.51 1025.67 1025.87 1026.07 1026.19 1026.19 1025.99 1025.57 1024.93 1024.12 1023.20 1022.26 1021.38 1020.61 1019.95 1019.39 1018.87 1018.31 1017.66 1016.87 1015.97 1015.01 1014.06 1013.22 1012.61 1012.27 1012.24 1012.48 1012.94 1013.51 1014.11 1014.67 1015.14 1015.50 1015.79 1016.04 1016.30 1016.58 1016.91 1017.26 1017.62 1017.95
1024.25 1024.96 1025.44 1025.70 1025.80 1025.82 1025.83 1025.90 1026.07 1026.31 1026.57 1026.76 1026.80 1026.61 1026.17 1025.49 1024.62 1023.65 1022.70 1021.82 1021.08 1020.46 1019.92 1019.40 1018.79 1018.03 1017.10 1016.01 1014.84 1013.70 1012.71 1011.99 1011.59 1011.55 1011.82 1012.32 1012.95 1013.61 1014.22 1014.74 1015.16 1015.50 1015.82 1016.14 1016.50 1016.91 1017.34 1017.76 1018.13
1025.47 1026.10 1026.46 1026.57 1026.51 1026.38 1026.28 1026.28 1026.42 1026.67 1026.95 1027.18 1027.25 1027.07 1026.63 1025.93 1025.03 1024.05 1023.09 1022.22 1021.49 1020.88 1020.34 1019.78 1019.10 1018.23 1017.15 1015.90 1014.57 1013.27 1012.15 1011.33 1010.88 1010.82 1011.09 1011.61 1012.28 1012.98 1013.63 1014.20 1014.66 1015.07 1015.46 1015.88 1016.35 1016.87 1017.40 1017.90 1018.34
1026.62 1027.17 1027.42 1027.39 1027.20 1026.93 1026.71 1026.63 1026.70 1026.93 1027.21 1027.45 1027.53 1027.38 1026.95 1026.25 1025.37 1024.39 1023.42 1022.55 1021.81 1021.18 1020.60 1019.97 1019.20 1018.22 1017.02 1015.64 1014.18 1012.78 1011.57 1010.68 1010.19 1010.10 1010.36 1010.89 1011.56 1012.28 1012.95 1013.55 1014.07 1014.55 1015.03 1015.56 1016.14 1016.78 1017.43 1018.04 1018.56
1027.63 1028.10 1028.25 1028.12 1027.81 1027.42 1027.10 1026.92 1026.93 1027.10 1027.36 1027.59 1027.68 1027.55 1027.14 1026.48 1025.61 1024.65 1023.68 1022.79 1022.01 1021.33 1020.67 1019.96 1019.10 1018.03 1016.73 1015.27 1013.74 1012.27 1011.02 1010.09 1009.57 1009.46 1009.70 1010.21 1010.87 1011.58 1012.26 1012.88 1013.45 1013.99 1014.56 1015.18 1015.88 1016.64 1017.41 1018.14 1018.76
1028.45 1028.86 1028.93 1028.72 1028.32 1027.84 1027.43 1027.16 1027.09 1027.20 1027.41 1027.62 1027.72 1027.61 1027.23 1026.61 1025.77 1024.82 1023.85 1022.93 1022.09 1021.33 1020.58 1019.78 1018.82 1017.67 1016.33 1014.82 1013.27 1011.80 1010.54 1009.62 1009.08 1008.95 1009.16 1009.63 1010.25 1010.94 1011.61 1012.24 1012.84 1013.43 1014.07 1014.78 1015.58 1016.44 1017.31 1018.14 1018.86
1029.06 1029.41 1029.43 1029.17 1028.72 1028.19 1027.70 1027.36 1027.22 1027.25 1027.41 1027.59 1027.67 1027.58 1027.24 1026.65 1025.85 1024.91 1023.93 1022.96 1022.06 1021.20 1020.35 1019.45 1018.42 1017.23 1015.86 1014.37 1012.85 1011.42 1010.19 1009.29 1008.75 1008.59 1008.76 1009.18 1009.75 1010.38 1011.03 1011.65 1012.26 1012.88 1013.57 1014.34 1015.21 1016.14 1017.10 1018.02 1018.83
1029.45 1029.77 1029.77 1029.50 1029.04 1028.49 1027.96 1027.56 1027.34 1027.30 1027.39 1027.52 1027.58 1027.49 1027.17 1026.62 1025.85 1024.93 1023.93 1022.92 1021.93 1020.98 1020.04 1019.05 1017.96 1016.74 1015.39 1013.95 1012.50 1011.14 1009.98 1009.10 1008.58 1008.39 1008.50 1008.85 1009.35 1009.92 1010.52 1011.11 1011.71 1012.35 1013.06 1013.86 1014.76 1015.74 1016.75 1017.73 1018.62
1029.67 1029.98 1030.00 1029.77 1029.33 1028.79 1028.26 1027.81 1027.52 1027.40 1027.41 1027.47 1027.49 1027.38 1027.07 1026.54 1025.80 1024.89 1023.87 1022.82 1021.76 1020.73 1019.69 1018.63 1017.50 1016.28 1014.97 1013.60 1012.24 1010.97 1009.88 1009.05 1008.53 1008.30 1008.36 1008.62 1009.03 1009.53 1010.06 1010.62 1011.20 1011.82 1012.53 1013.34 1014.24 1015.23 1016.26 1017.27 1018.21
1029.80 1030.13 1030.21 1030.04 1029.67 1029.18 1028.65 1028.18 1027.82 1027.61 1027.51 1027.48 1027.43 1027.28 1026.97 1026.45 1025.72 1024.82 1023.79 1022.70 1021.58 1020.47 1019.37 1018.25 1017.09 1015.88 1014.62 1013.33 1012.06 1010.89 1009.87 1009.08 1008.55 1008.29 1008.27 1008.45 1008.77 1009.19 1009.65 1010.16 1010.70 1011.31 1012.00 1012.78 1013.67 1014.64 1015.65 1016.67 1017.64
1029.91 1030.30 1030.48 1030.42 1030.15 1029.72 1029.22 1028.71 1028.28 1027.96 1027.74 1027.59 1027.45 1027.23 1026.89 1026.36 1025.64 1024.75 1023.71 1022.60 1021.43 1020.26 1019.10 1017.93 1016.75 1015.56 1014.34 1013.13 1011.94 1010.85 1009.90 1009.14 1008.61 1008.30 1008.22 1008.31 1008.55 1008.88 1009.28 1009.74 1010.25 1010.82 1011.48 1012.23 1013.08 1014.01 1015.00 1015.99 1016.97
1030.11 1030.59 1030.90 1030.98 1030.82 1030.48 1029.99 1029.46 1028.93 1028.48 1028.12 1027.82 1027.55 1027.25 1026.84 1026.30 1025.58 1024.69 1023.66 1022.52 1021.33 1020.11 1018.90 1017.69 1016.49 1015.30 1014.12 1012.96 1011.84 1010.81 1009.91 1009.18 1008.64 1008.31 1008.16 1008.19 1008.35 1008.62 1008.97 1009.38 1009.86 1010.41 1011.03 1011.75 1012.55 1013.43 1014.36 1015.32 1016.27
1030.45 1031.07 1031.52 1031.75 1031.72 1031.45 1030.98 1030.39 1029.77 1029.16 1028.63 1028.16 1027.74 1027.32 1026.84 1026.25 1025.53 1024.64 1023.62 1022.49 1021.27 1020.03 1018.77 1017.52 1016.29 1015.09 1013.92 1012.79 1011.72 1010.74 1009.87 1009.16 1008.63 1008.28 1008.10 1008.08 1008.20 1008.43 1008.74 1009.13 1009.58 1010.10 1010.70 1011.37 1012.13 1012.95 1013.83 1014.73 1015.65
1030.99 1031.75 1032.36 1032.73 1032.81 1032.60 1032.13 1031.48 1030.72 1029.95 1029.23 1028.57 1027.98 1027.42 1026.86 1026.22 1025.48 1024.61 1023.60 1022.47 1021.26 1019.98 1018.69 1017.40 1016.13 1014.90 1013.72 1012.59 1011.54 1010.59 1009.76 1009.08 1008.56 1008.21 1008.03 1008.01 1008.11 1008.32 1008.62 1009.00 1009.43 1009.94 1010.50 1011.14 1011.85 1012.62 1013.43 1014.28 1015.14
1031.70 1032.61 1033.37 1033.86 1034.03 1033.85 1033.35 1032.61 1031.72 1030.77 1029.84 1028.98 1028.22 1027.52 1026.86 1026.18 1025.42 1024.56 1023.57 1022.46 1021.25 1019.97 1018.64 1017.31 1015.99 1014.71 1013.50 1012.35 1011.30 1010.37 1009.56 1008.92 1008.43 1008.12 1007.97 1007.96 1008.08 1008.31 1008.62 1009.00 1009.43 1009.92 1010.46 1011.06 1011.73 1012.44 1013.19 1013.98 1014.78
1032.55 1033.59 1034.46 1035.04 1035.25 1035.07 1034.52 1033.67 1032.63 1031.49 1030.37 1029.33 1028.40 1027.57 1026.82 1026.09 1025.32 1024.48 1023.52 1022.44 1021.25 1019.96 1018.61 1017.23 1015.86 1014.53 1013.26 1012.08 1011.01 1010.08 1009.30 1008.68 1008.25 1007.99 1007.89 1007.94 1008.11 1008.37 1008.71 1009.10 1009.54 1010.02 1010.54 1011.12 1011.73 1012.40 1013.10 1013.83 1014.58
1033.47 1034.59 1035.52 1036.13 1036.34 1036.12 1035.49 1034.52 1033.33 1032.04 1030.74 1029.54 1028.46 1027.53 1026.70 1025.94 1025.17 1024.35 1023.44 1022.39 1021.23 1019.95 1018.58 1017.17 1015.74 1014.34 1013.01 1011.78 1010.68 1009.74 1008.97 1008.39 1008.01 1007.82 1007.79 1007.91 1008.14 1008.46 1008.84 1009.26 1009.71 1010.19 1010.70 1011.25 1011.83 1012.45 1013.11 1013.80 1014.50
1034.35 1035.50 1036.43 1037.01 1037.16 1036.86 1036.13 1035.05 1033.74 1032.31 1030.89 1029.56 1028.38 1027.37 1026.50 1025.72 1024.97 1024.19 1023.32 1022.33 1021.19 1019.93 1018.56 1017.12 1015.64 1014.18 1012.79 1011.50 1010.35 1009.38 1008.61 1008.06 1007.73 1007.60 1007.65 1007.84 1008.15 1008.54 1008.97 1009.42 1009.89 1010.38 1010.88 1011.40 1011.96 1012.56 1013.19 1013.84 1014.51
1035.10 1036.21 1037.06 1037.54 1037.59 1037.18 1036.35 1035.18 1033.77 1032.26 1030.77 1029.39 1028.16 1027.12 1026.24 1025.47 1024.75 1024.01 1023.19 1022.25 1021.16 1019.93 1018.57 1017.10 1015.59 1014.07 1012.61 1011.25 1010.05 1009.04 1008.25 1007.71 1007.41 1007.32 1007.44 1007.70 1008.09 1008.54 1009.02 1009.52 1010.02 1010.52 1011.02 1011.55 1012.10 1012.68 1013.30 1013.94 1014.58
1035.64 1036.62 1037.32 1037.66 1037.56 1037.04 1036.12 1034.88 1033.45 1031.93 1030.43 1029.06 1027.85 1026.82 1025.96 1025.22 1024.53 1023.84 1023.07 1022.18 1021.14 1019.95 1018.60 1017.14 1015.60 1014.04 1012.52 1011.09 1009.82 1008.76 1007.93 1007.37 1007.07 1007.02 1007.17 1007.50 1007.94 1008.45 1008.99 1009.54 1010.07 1010.60 1011.12 1011.66 1012.22 1012.80 1013.42 1014.06 1014.70
Thickness
5697 5698 5698 5690 5672 5655 5655 5665 5671 5675 5679 5684 5686 5687 5685 5684 5683 5684 5695 5702 5704 5705 5706 5706 5707 5707 5707 5707 5707 5708 5708 5709 5710 5711 5711 5712 5712 5713 5713 5713 5713 5713 5713 5713 5713 5713 5713 5712 5712
5692 5693 5686 5672 5654 5644 5652 5662 5666 5672 5678 5679 5681 5682 5682 5682 5686 5687 5691 5695 5698 5700 5701 5702 5702 5703 5703 5703 5704 5704 5704 5705 5706 5706 5707 5707 5708 5708 5709 5709 5709 5709 5709 5709 5708 5708 5708 5708 5707
5686 5684 5670 5654 5644 5643 5655 5663 5664 5670 5674 5675 5673 5675 5676 5677 5680 5682 5686 5690 5693 5694 5696 5697 5698 5698 5699 5699 5699 5700 5700 5701 5701 5702 5702 5702 5703 5703 5704 5704 5704 5705 5705 5704 5704 5703 5703 5702 5702
5676 5667 5656 5644 5644 5648 5655 5660 5661 5664 5667 5668 5667 5666 5669 5673 5675 5678 5682 5684 5686 5688 5690 5691 5693 5693 5694 5694 5695 5695 5695 5696 5696 5697 5697 5698 5698 5698 5698 5699 5699 5700 5699 5699 5699 5698 5698 5697 5697
5664 5651 5640 5633 5640 5647 5650 5654 5657 5657 5659 5660 5660 5659 5661 5666 5670 5673 5676 5678 5679 5681 5683 5685 5687 5688 5689 5689 5690 5690 5690 5690 5691 5692 5693 5693 5693 5693 5693 5693 5694 5694 5694 5694 5693 5693 5693 5692 5691
5646 5638 5627 5627 5636 5643 5646 5648 5650 5650 5651 5652 5652 5651 5655 5659 5663 5665 5668 5670 5672 5674 5676 5678 5680 5682 5683 5683 5684 5684 5685 5685 5686 5687 5688 5688 5688 5688 5688 5688 5688 5688 5689 5688 5688 5687 5687 5687 5686
5636 5627 5623 5626 5629 5636 5641 5642 5642 5642 5643 5644 5646 5643 5647 5651 5654 5657 5660 5662 5664 5666 5669 5671 5673 5675 5676 5677 5678 5678 5679 5679 5680 5681 5682 5682 5682 5682 5682 5682 5682 5683 5683 5682 5682 5681 5681 5680 5680
5631 5622 5619 5618 5623 5629 5635 5636 5637 5636 5636 5638 5639 5636 5638 5644 5647 5649 5652 5653 5656 5659 5661 5663 5666 5668 5669 5671 5671 5672 5673 5673 5673 5674 5675 5676 5676 5676 5676 5676 5676 5677 5677 5676 5676 5675 5674 5674 5673
5627 5612 5610 5615 5618 5623 5627 5627 5628 5630 5629 5630 5630 5632 5634 5637 5639 5641 5643 5645 5647 5651 5653 5655 5658 5660 5662 5663 5664 5666 5666 5667 5667 5667 5668 5669 5669 5669 5669 5669 5669 5670 5670 5670 5669 5669 5668 5667 5666
5613 5603 5611 5615 5616 5616 5617 5617 5617 5620 5619 5620 5621 5624 5625 5627 5629 5632 5633 5635 5638 5642 5645 5648 5650 5652 5654 5656 5657 5658 5659 5660 5660 5661 5661 5662 5662 5662 5662 5662 5662 5662 5663 5663 5662 5662 5661 5660 5659
5606 5601 5606 5608 5610 5610 5609 5607 5609 5610 5608 5609 5611 5615 5616 5618 5620 5622 5624 5628 5631 5633 5636 5640 5642 5644 5646 5647 5649 5650 5651 5652 5653 5654 5654 5655 5655 5655 5654 5654 5654 5654 5655 5655 5655 5654 5653 5653 5652
5597 5597 5599 5600 5601 5599 5598 5598 5598 5599 5600 5603 5605 5607 5608 5609 5611 5613 5616 5619 5622 5625 5628 5631 5634 5636 5638 5639 5641 5642 5643 5644 5645 5646 5646 5647 5647 5647 5647 5646 5646 5647 5647 5647 5647 5646 5646 5645 5645
5589 5589 5590 5589 5588 5588 5587 5586 5587 5590 5592 5594 5596 5597 5598 5600 5603 5605 5608 5610 5613 5616 5620 5622 5625 5627 5629 5630 5633 5634 5636 5637 5638 5638 5639 5639 5639 5639 5639 5639 5638 5638 5638 5638 5638 5638 5638 5637 5637
5581 5579 5578 5579 5580 5580 5577 5577 5579 5582 5582 5584 5585 5586 5588 5590 5593 5596 5599 5601 5604 5607 5610 5613 5615 5618 5620 5622 5624 5626 5628 5629 5630 5631 5631 5631 5631 5631 5631 5631 5630 5630 5629 5630 5630 5630 5630 5629 5629
5572 5569 5568 5569 5570 5570 5570 5568 5569 5573 5573 5574 5574 5576 5579 5582 5585 5588 5591 5593 5596 5598 5601 5603 5606 5609 5611 5613 5615 5618 5620 5621 5622 5623 5623 5623 5623 5623 5622 5622 5622 5621 5621 5621 5621 5621 5621 5621 5621
5560 5555 5553 5560 5559 5560 5558 5558 5565 5564 5563 5564 5565 5566 5569 5573 5576 5579 5581 5584 5587 5589 5592 5595 5597 5599 5602 5604 5607 5609 5611 5613 5614 5615 5616 5615 5616 5616 5615 5614 5613 5612 5612 5612 5612 5612 5612 5611 5611
5543 5539 5542 5547 5549 5547 5545 5547 5556 5555 5555 5555 5555 5556 5559 5563 5567 5569 5572 5574 5577 5580 5583 5586 5588 5590 5593 5595 5598 5600 5602 5604 5605 5606 5607 5608 5607 5607 5607 5606 5605 5604 5603 5603 5603 5603 5603 5602 5602
5531 5528 5530 5532 5537 5536 5533 5536 5545 5546 5545 5544 5545 5547 5550 5553 5558 5561 5563 5566 5568 5570 5574 5577 5579 5581 5583 5586 5589 5591 5592 5595 5596 5597 5598 5599 5599 5599 5598 5597 5597 5596 5594 5593 5593 5593 5594 5593 5593
5527 5523 5521 5524 5529 5526 5524 5528 5537 5539 5537 5536 5536 5539 5541 5545 5549 5552 5555 5556 5558 5562 5565 5567 5569 5571 5573 5576 5578 5581 5583 5586 5587 5589 5590 5590 5590 5590 5590 5589 5589 5588 5587 5585 5585 5585 5584 5584 5584
5519 5515 5514 5517 5520 5519 5516 5522 5530 5532 5531 5531 5531 5532 5533 5537 5540 5542 5544 5546 5549 5552 5554 5557 5560 5562 5565 5567 5570 5572 5574 5576 5578 5579 5580 5581 5581 5581 5582 5582 5581 5581 5580 5578 5577 5577 5576 5575 5576
5510 5506 5506 5507 5507 5507 5508 5518 5525 5527 5525 5526 5525 5525 5526 5528 5530 5534 5535 5537 5539 5542 5544 5548 5550 5553 5556 5558 5560 5562 5563 5566 5567 5569 5570 5572 5573 5573 5574 5574 5575 5574 5573 5571 5570 5570 5570 5568 5567
5504 5505 5502 5499 5493 5489 5495 5495 5516 5515 5513 5516 5516 5515 5516 5518 5520 5523 5526 5527 5529 5532 5534 5537 5540 5543 5546 5549 5551 5553 5555 5557 5559 5561 5562 5564 5565 5566 5567 5566 5567 5566 5565 5564 5563 5562 5562 5562 5560
5495 5496 5491 5487 5480 5474 5477 5478 5502 5502 5505 5509 5508 5506 5507 5508 5510 5513 5515 5517 5519 5521 5523 5526 5529 5533 5536 5539 5542 5545 5546 5548 5550 5551 5553 5555 5556 5557 5559 5559 5558 5558 5558 5557 5556 5555 5555 5554 5553
5486 5482 5475 5464 5462 5463 5469 5468 5486 5489 5497 5502 5502 5499 5498 5499 5500 5503 5505 5507 5509 5511 5514 5517 5520 5523 5526 5528 5532 5536 5538 5539 5540 5542 5544 5546 5547 5548 5550 5551 5551 5550 5550 5549 5548 5548 5547 5546 5546
5477 5469 5458 5456 5447 5457 5463 5464 5478 5492 5491 5491 5492 5490 5488 5489 5490 5492 5495 5498 5499 5502 5505 5508 5511 5515 5517 5520 5522 5526 5529 5532 5533 5535 5536 5537 5538 5540 5542 5543 5542 5542 5542 5540 5539 5538 5538 5538 5537
5467 5466 5456 5454 5447 5451 5452 5453 5477 5486 5483 5482 5482 5480 5479 5480 5481 5483 5485 5488 5490 5493 5496 5499 5503 5506 5509 5512 5515 5518 5521 5523 5525 5527 5528 5530 5531 5532 5533 5534 5533 5533 5533 5531 5530 5529 5528 5528 5528
5457 5451 5449 5434 5423 5426 5441 5446 5466 5477 5476 5475 5473 5471 5470 5470 5471 5473 5475 5479 5481 5484 5487 5490 5493 5497 5501 5504 5506 5509 5512 5515 5517 5518 5519 5521 5522 5523 5523 5524 5524 5524 5523 5522 5521 5520 5519 5519 5519
5452 5442 5431 5428 5430 5434 5441 5442 5457 5466 5466 5466 5463 5461 5460 5461 5462 5464 5466 5469 5472 5474 5477 5479 5483 5488 5492 5494 5497 5501 5504 5506 5509 5509 5510 5511 5513 5514 5514 5515 5514 5514 5514 5513 5512 5511 5510 5509 5510
5436 5432 5427 5417 5420 5424 5426 5449 5457 5457 5457 5455 5453 5453 5451 5452 5453 5454 5457 5459 5462 5464 5467 5470 5474 5478 5481 5485 5488 5491 5494 5496 5499 5500 5501 5502 5503 5504 5504 5505 5504 5504 5504 5503 5503 5502 5502 5502 5501
5433 5428 5420 5422 5413 5405 5411 5440 5457 5450 5447 5446 5444 5445 5445 5445 5445 5445 5447 5449 5452 5454 5457 5461 5464 5468 5471 5475 5478 5481 5484 5487 5489 5490 5491 5492 5493 5493 5494 5495 5495 5495 5494 5493 5493 5493 5493 5493 5493